Time,TemperatureF,DewpointF,PressureIn,WindDirection,WindDirectionDegrees,WindSpeedMPH,WindSpeedGustMPH,Humidity,HourlyPrecipIn,Conditions,Clouds,dailyrainin,SoftwareType,DateUTC
2013-04-11 00:00:00,20.0,14.0,-100.00,North,-999,-999.0,-999.0,78,-99.99,,,0.01,,2013-04-11 06:00:00,
2013-04-11 00:52:00,20.0,14.0,-100.00,North,-999,-999.0,-999.0,78,-99.99,,,0.01,,2013-04-11 06:52:00,
2013-04-11 02:00:00,23.0,17.0,-100.00,North,-999,-999.0,-999.0,78,-99.99,,,0.01,,2013-04-11 08:00:00,
2013-04-11 03:00:00,23.0,18.0,-100.00,North,-999,-999.0,-999.0,78,-99.99,,,0.01,,2013-04-11 09:00:00,
2013-04-11 03:53:00,24.0,18.0,-100.00,North,-999,-999.0,-999.0,78,-99.99,,,0.01,,2013-04-11 09:53:00,
2013-04-11 04:00:00,22.0,17.0,-100.00,North,-999,-999.0,-999.0,78,-99.99,,,0.01,,2013-04-11 10:00:00,
2013-04-11 04:52:00,22.0,17.0,-100.00,North,-999,-999.0,-999.0,78,-99.99,,,0.01,,2013-04-11 10:52:00,
2013-04-11 05:00:00,23.0,17.0,-100.00,North,-999,-999.0,-999.0,78,-99.99,,,0.01,,2013-04-11 11:00:00,
2013-04-11 05:52:00,23.0,17.0,-100.00,North,-999,-999.0,-999.0,78,-99.99,,,0.01,,2013-04-11 11:52:00,
2013-04-11 06:00:00,23.0,17.0,-100.00,North,-999,-999.0,-999.0,78,-99.99,,,0.01,,2013-04-11 12:00:00,
2013-04-11 06:52:00,23.0,17.0,-100.00,North,-999,-999.0,-999.0,78,-99.99,,,0.01,,2013-04-11 12:52:00,
2013-04-11 07:00:00,23.0,18.0,-100.00,North,-999,-999.0,-999.0,78,-99.99,,,0.01,,2013-04-11 13:00:00,
2013-04-11 07:54:00,23.0,18.0,-100.00,North,-999,-999.0,-999.0,78,-99.99,,,0.01,,2013-04-11 13:54:00,
2013-04-11 08:00:00,26.0,20.0,-100.00,North,-999,-999.0,-999.0,78,-99.99,,,0.01,,2013-04-11 14:00:00,
2013-04-11 08:53:00,26.0,20.0,-100.00,North,-999,-999.0,-999.0,78,-99.99,,,0.01,,2013-04-11 14:53:00,
2013-04-11 11:00:00,35.0,29.0,-100.00,North,-999,-999.0,-999.0,78,-99.99,,,0.00,,2013-04-11 17:00:00,
2013-04-11 11:53:00,35.0,29.0,-100.00,North,-999,-999.0,-999.0,78,-99.99,,,0.00,,2013-04-11 17:53:00,
2013-04-11 12:00:00,36.0,29.0,-100.00,North,-999,-999.0,-999.0,77,-99.99,,,0.01,,2013-04-11 18:00:00,
2013-04-11 13:00:00,35.0,29.0,-100.00,North,-999,-999.0,-999.0,77,-99.99,,,0.01,,2013-04-11 19:00:00,
2013-04-11 14:00:00,37.0,30.0,-100.00,North,-999,-999.0,-999.0,77,-99.99,,,0.01,,2013-04-11 20:00:00,
2013-04-11 15:00:00,35.0,29.0,-100.00,North,-999,-999.0,-999.0,77,-99.99,,,0.01,,2013-04-11 21:00:00,
2013-04-11 16:00:00,33.0,27.0,-100.00,North,-999,-999.0,-999.0,77,-99.99,,,0.01,,2013-04-11 22:00:00,
2013-04-11 16:44:00,33.0,27.0,-100.00,North,-999,-999.0,-999.0,77,-99.99,,,0.01,,2013-04-11 22:44:00,
2013-04-11 16:53:00,33.0,27.0,-100.00,North,-999,-999.0,-999.0,77,-99.99,,,0.01,,2013-04-11 22:53:00,
2013-04-11 17:00:00,33.0,27.0,-100.00,North,-999,-999.0,-999.0,78,-99.99,,,0.01,,2013-04-11 23:00:00,
2013-04-11 18:00:00,32.0,-99.9,-100.00,North,-999,-999.0,-999.0,-999,-99.99,,,0.01,,2013-04-12 00:00:00,
2013-04-11 18:43:00,33.0,-99.9,-100.00,North,-999,-999.0,-999.0,-999,-99.99,,,0.01,,2013-04-12 00:43:00,
2013-04-11 18:53:00,32.0,-99.9,-100.00,North,-999,-999.0,-999.0,-999,-99.99,,,0.01,,2013-04-12 00:53:00,
2013-04-11 19:00:00,30.0,24.0,-100.00,North,-999,-999.0,-999.0,78,-99.99,,,0.01,,2013-04-12 01:00:00,
2013-04-11 19:52:00,30.0,24.0,-100.00,North,-999,-999.0,-999.0,78,-99.99,,,0.01,,2013-04-12 01:52:00,
2013-04-11 20:00:00,28.0,22.0,-100.00,North,-999,-999.0,-999.0,78,-99.99,,,0.01,,2013-04-12 02:00:00,
2013-04-11 20:52:00,28.0,22.0,-100.00,North,-999,-999.0,-999.0,78,-99.99,,,0.01,,2013-04-12 02:52:00,
2013-04-11 21:00:00,26.0,21.0,-100.00,North,-999,-999.0,-999.0,78,-99.99,,,0.01,,2013-04-12 03:00:00,
2013-04-11 22:00:00,26.0,20.0,-100.00,North,-999,-999.0,-999.0,78,-99.99,,,0.01,,2013-04-12 04:00:00,
2013-04-11 22:53:00,26.0,20.0,-100.00,North,-999,-999.0,-999.0,78,-99.99,,,0.01,,2013-04-12 04:53:00,
2013-04-11 23:00:00,27.0,21.0,-100.00,North,-999,-999.0,-999.0,78,-99.99,,,0.01,,2013-04-12 05:00:00,
2013-04-11 23:42:00,27.0,21.0,-100.00,North,-999,-999.0,-999.0,78,-99.99,,,0.01,,2013-04-12 05:42:00,
2013-04-11 23:52:00,27.0,21.0,-100.00,North,-999,-999.0,-999.0,78,-99.99,,,0.01,,2013-04-12 05:52:00,